User: anonymous   Login
Location: Владивосток
(43.1151°N, 131.8856°E)
Time: 16:06:06
(UTC+10:00)
Language:

SL-16 DEB - Orbit

View from above orbital plane
View from above orbital plane
View from above satellite
View from above satellite

Ground track
Ground track

The orbit data is extracted from the following two-line orbital elements,

1 39908U 93016CJ  24195.74325269  .00001029  00000-0  46007-3 0  9999
2 39908  71.0019 209.4563 0009214  13.0099 347.1265 14.25001895525124
Epoch (UTC): 13 July 2024 17:50:17
Eccentricity: 0.0009214
inclination: 71.0019°
perigee height: 802 km
apogee height: 815 km
right ascension of ascending node: 209.4563°
argument of perigee: 13.0099°
revolutions per day: 14.25001895
mean anomaly at epoch: 347.1265°
orbit number at epoch: 52512

The dashed part of the orbit path shows where the satellite is in the earth's shadow,  

DLR